ARIANE 40 R/B, 25261

Orbit data source: Space-Track

ARIANE 40 R/B, 25261 is space debris in SSO originally from a launch on Tue, 24 Mar 1998 UTC launched from the French Guiana (FRGUI). Debris objects in space refer to the collection of defunct objects orbiting the Earth. Examples of debris include non-operational satellites, rocket bodies, and fragments generated from explosions, collisions, or faulty payload assembly.

Loading next visibility...
Identifier
25261, 1998-017B
Orbit
SSO
Country
Flag of FRFR
Related business
Manufacturer
Ae/LesM
Mission
Spacecraft
Bus & Motor
ARIANE H10-3, Unknown motor
Mass
1,820 kg wet, 1,820 kg dry
Launch date (UTC)
1998-03-24 (29 years ago)
Launch vehicle
Unknown
Launch site
French Guiana (FRGUI)
Object type
Payload
Rocket body
Debris
Shape & HBR
Cyl, 5.7 m
Radar Cross Section
25.199 m², Large (>1 m²)

Expand to show TLE details & history
Last TLE update: 11 hours ago

TLE from 11 hours ago
0 ARIANE 40 R/B
1 25261U 98017B   26265.67806448  .00000193  00000-0  81634-4 0  9994
2 25261  98.8088 298.8503 0003369 179.1256 180.9936 14.36402744489985
Epoch: 2026-09-22T16:16Z
TLE epoch observation values (Epoch: 2026-09-22T16:16:24.771Z)
Latitude
0.00003°
Longitude
53.20699°
Altitude
775.751 km
Speed
7.465 km/s
True Right ascension
19h 55m 24s
True Declination
0° 00' 00"
Sunlit
Object was in full shadow at epoch
Visualization orbit readout
Latitude
Unknown
Longitude
Unknown
Altitude
Unknown
Speed
Unknown
Apparent Right ascension
Unknown
Apparent Declination
Unknown
Sunlit
N/A
Visualization observer readout
Local Sidereal Time
20:29:25
Azimuth
Unknown
Elevation
Unknown
Doppler factor
Unknown
Orbital elements
Apogee altitude
769.957 km
Perigee altitude
765.143 km
Semi-major axis
7,145.687 km
Eccentricity
0.00034
Inclination
98.8088°
RAAN
298.8503°
Arg. of periapsis
179.1256°
True anomaly
180.99293°
Mean anomaly
180.9936°
Eccentric anomaly
180.99327°
Mean motion
3.59317 °/min
Orbital period
100.19 mins
BSTAR
0.000081634
Loading maneuver chart data...
Computing Atmospheric mass density...
Loading historical data...
Loading historical data...
Loading historical data...
Loading historical data...
Loading historical data...
Loading historical data...
Loading historical data...

Documentation

Showing up to 5 results
|